Home   Weather   Winterthur   Past weeks

Flag for Switzerland Past Weather in Winterthur, Switzerland — Yesterday and Last 2 Weeks

Now
63 °F

Rain showers. Partly cloudy.


Feels Like: 63 °F
Forecast: 55 / 67 °F
Wind: 7 mph from Southwest

Location: Zurich-Kloten

Current Time: Jun 28, 2017 at 5:51:11 am

Latest Report: Jun 28, 2017 at 5:20 am


Visibility: 4 mi

Pressure: 29.65 "Hg

Humidity: 94%

Dew Point: 61 °F

Location of WinterthurLocation

Past Weather in Winterthur — Graph

°F

Winterthur Temperature Yesterday

Maximum temperature yesterday: 81 °F (at 3:50 pm)
Minimum temperature yesterday: 61 °F (at 5:20 am)
Average temperature yesterday: 71 °F

High & Low Weather Summary for the Past Weeks

 TemperatureHumidityPressure
High91 °F (Jun 22, 2:20 pm)100% (Jun 16, 4:50 am)30.30 "Hg (Jun 16, 4:50 am)
Low52 °F (Jun 17, 5:50 am)27% (Jun 26, 4:50 pm)29.62 "Hg (Jun 27, 11:20 pm)
Average72 °F63%30.06 "Hg
* Reported Jun 13 4:20 am — Jun 28 4:20 am, Winterthur. Weather by CustomWeather, © 2017

Note: Actual official high and low records may vary slightly from our data, if they occured in-between our weather recording intervals... More about our weather records

Advertising

Winterthur Weather History for the Previous 24 Hours

Scroll right to see more
 ConditionsComfort  
Time TempWeatherWind HumidityBarometerVisibility
4:20 am
Wed, Jun 28
63 °FRain showers. Partly cloudy.5 mph94%29.65 "Hg4 mi
3:50 am64 °FRain showers. Passing clouds.1 mph88%29.68 "Hg4 mi
3:20 am66 °FRain showers. Partly cloudy.3 mph88%29.65 "Hg5 mi
2:50 am66 °FSprinkles. Passing clouds.5 mph88%29.65 "HgN/A
1:50 am66 °FPassing clouds.6 mph94%29.65 "HgN/A
1:20 am66 °FPassing clouds.5 mph94%29.65 "HgN/A
12:50 am66 °FSprinkles. Passing clouds.1 mph94%29.62 "HgN/A
12:20 am66 °FPassing clouds.1 mph94%29.65 "HgN/A
11:50 pm
Tue, Jun 27
66 °FPassing clouds.5 mph94%29.65 "HgN/A
11:20 pm70 °FSprinkles. Partly cloudy.6 mph78%29.62 "HgN/A
10:50 pm68 °FSprinkles. Partly cloudy.6 mph94%29.68 "HgN/A
10:20 pm70 °FPartly cloudy.5 mph83%29.68 "HgN/A
9:50 pm73 °FLight rain. Partly cloudy.5 mph69%29.68 "HgN/A
9:20 pm77 °FBroken clouds.5 mph54%29.65 "HgN/A
8:50 pm77 °FBroken clouds.3 mph54%29.65 "HgN/A
8:20 pm79 °FBroken clouds.3 mph51%29.68 "HgN/A
7:50 pm81 °FPartly sunny.1 mph45%29.68 "HgN/A
7:20 pm79 °FPartly sunny.2 mph48%29.68 "HgN/A
6:50 pm79 °FBroken clouds.3 mph51%29.71 "HgN/A
6:20 pm81 °FPartly sunny.3 mph45%29.71 "HgN/A
5:50 pm81 °FPartly sunny.5 mph45%29.71 "HgN/A
5:20 pm81 °FPassing clouds.6 mph42%29.74 "HgN/A
4:50 pm81 °FPartly sunny.5 mph42%29.74 "HgN/A
4:20 pm81 °FScattered clouds.6 mph45%29.74 "HgN/A
3:50 pm81 °FPartly sunny.6 mph45%29.77 "HgN/A
3:20 pm79 °FPartly sunny.3 mph48%29.77 "HgN/A
2:50 pm79 °FPartly sunny.5 mph51%29.77 "HgN/A
2:20 pm75 °FBroken clouds.5 mph57%29.80 "HgN/A
1:50 pm75 °FPartly sunny.5 mph57%29.80 "HgN/A
1:20 pm73 °FPartly sunny.3 mph61%29.83 "HgN/A
12:50 pm72 °FBroken clouds.5 mph65%29.83 "HgN/A
12:20 pm72 °FBroken clouds.6 mph65%29.83 "HgN/A
11:50 am72 °FBroken clouds.3 mph69%29.86 "HgN/A
11:20 am70 °FScattered showers. Broken clouds.2 mph73%29.86 "HgN/A
10:50 am70 °FScattered showers. Partly sunny.3 mph73%29.86 "HgN/A
10:20 am70 °FScattered showers. Partly sunny.3 mph69%29.86 "HgN/A
9:50 am70 °FScattered showers. Partly sunny.2 mph69%29.86 "HgN/A
9:20 am68 °FScattered showers. Broken clouds.2 mph78%29.86 "HgN/A
8:50 am68 °FScattered showers. Broken clouds.3 mph78%29.86 "HgN/A
8:20 am66 °FBroken clouds.3 mph83%29.86 "HgN/A
7:50 am64 °FBroken clouds.3 mph88%29.86 "HgN/A
7:20 am64 °FPartly sunny.5 mph88%29.86 "HgN/A
6:50 am63 °FScattered showers. Partly sunny.2 mph94%29.86 "HgN/A
6:20 am63 °FPartly sunny.No wind94%29.86 "HgN/A
5:50 am63 °FBroken clouds.No wind94%29.86 "HgN/A
5:20 am61 °FClear.2 mph94%29.89 "Hg10 mi
Weather by CustomWeather, © 2017

See weather overviewHow to use our weather pages